Time,TemperatureF,DewpointF,PressureIn,WindDirection,WindDirectionDegrees,WindSpeedMPH,WindSpeedGustMPH,Humidity,HourlyPrecipIn,Conditions,Clouds,dailyrainin,SoftwareType,DateUTC
2013-04-12 00:00:00,67.5,65.7,29.82,SSE,158,2.7,6.3,94,0.00,,BKN050,0.00,VWS V14.01,2013-04-12 04:00:00,
2013-04-12 00:05:00,67.6,66.2,29.82,SSW,202,5.8,8.3,95,0.00,,BKN050,0.00,VWS V14.01,2013-04-12 04:05:00,
2013-04-12 00:10:00,67.6,66.2,29.82,SSE,158,4.0,4.0,95,0.00,,BKN050,0.00,VWS V14.01,2013-04-12 04:10:00,
2013-04-12 00:15:00,67.6,66.2,29.82,SSE,158,6.7,9.2,95,0.00,,BKN050,0.00,VWS V14.01,2013-04-12 04:15:00,
2013-04-12 00:20:00,67.8,66.3,29.79,SSW,202,2.7,3.6,95,0.00,,OVC055,0.00,VWS V14.01,2013-04-12 04:20:00,
2013-04-12 00:25:00,67.8,66.3,29.79,SSE,158,2.7,8.1,95,0.00,,OVC055,0.00,VWS V14.01,2013-04-12 04:25:00,
2013-04-12 00:30:00,67.8,66.3,29.79,SE,135,6.3,6.3,95,0.00,,OVC055,0.00,VWS V14.01,2013-04-12 04:30:00,
2013-04-12 00:36:00,68.0,66.5,29.79,SSE,158,8.1,8.1,95,0.00,,OVC055,0.00,VWS V14.01,2013-04-12 04:36:00,
2013-04-12 00:41:00,68.0,66.2,29.79,SSE,158,4.9,6.3,94,0.00,,OVC031,0.00,VWS V14.01,2013-04-12 04:41:00,
2013-04-12 00:46:00,68.0,66.2,29.79,SSE,158,2.2,4.0,94,0.00,,OVC031,0.00,VWS V14.01,2013-04-12 04:46:00,
2013-04-12 00:51:00,68.0,66.2,29.79,ENE,68,5.4,6.3,94,0.00,,OVC031,0.00,VWS V14.01,2013-04-12 04:51:00,
2013-04-12 00:57:00,68.2,66.4,29.79,SSE,158,6.7,6.7,94,0.00,,OVC031,0.00,VWS V14.01,2013-04-12 04:57:00,
2013-04-12 01:02:00,68.2,66.4,29.79,SSE,158,2.7,3.1,94,0.00,,-RA,0.00,VWS V14.01,2013-04-12 05:02:00,
2013-04-12 01:07:00,68.4,66.6,29.76,SSE,158,5.8,6.3,94,0.00,,-RA,0.00,VWS V14.01,2013-04-12 05:07:00,
2013-04-12 01:12:00,68.0,66.2,29.76,SSE,158,7.2,8.1,94,0.00,,-RA,0.00,VWS V14.01,2013-04-12 05:12:00,
2013-04-12 01:17:00,67.8,66.6,29.76,SSE,158,4.0,7.2,96,0.00,,-RA,0.00,VWS V14.01,2013-04-12 05:17:00,
2013-04-12 01:22:00,67.6,66.5,29.76,SSE,158,3.6,5.8,96,0.00,,RA,0.00,VWS V14.01,2013-04-12 05:22:00,
2013-04-12 01:27:00,67.5,66.3,29.76,SSE,158,5.4,5.4,96,0.00,,RA,0.00,VWS V14.01,2013-04-12 05:27:00,
2013-04-12 01:32:00,67.5,66.6,29.76,South,180,7.6,7.6,97,0.00,,RA,0.00,VWS V14.01,2013-04-12 05:32:00,
2013-04-12 01:37:00,67.5,66.6,29.79,SSW,202,4.9,4.9,97,0.04,,RA,0.04,VWS V14.01,2013-04-12 05:37:00,
2013-04-12 01:42:00,67.5,66.6,29.79,West,270,4.0,4.0,97,0.04,, +RA,0.04,VWS V14.01,2013-04-12 05:42:00,
2013-04-12 01:47:00,67.3,66.7,29.79,WSW,248,7.2,7.2,98,0.08,, +RA,0.08,VWS V14.01,2013-04-12 05:47:00,
2013-04-12 01:52:00,67.3,66.7,29.76,SSW,202,4.0,4.0,98,0.08,, +RA,0.08,VWS V14.01,2013-04-12 05:52:00,
2013-04-12 01:57:00,67.1,66.5,29.76,SSW,202,4.9,5.4,98,0.08,, +RA,0.08,VWS V14.01,2013-04-12 05:57:00,
2013-04-12 02:02:00,67.1,66.5,29.76,SE,135,2.2,3.1,98,0.12,,RA,0.12,VWS V14.01,2013-04-12 06:02:00,
2013-04-12 02:07:00,66.9,66.3,29.76,SSE,158,3.6,4.0,98,0.12,,RA,0.12,VWS V14.01,2013-04-12 06:07:00,
2013-04-12 02:12:00,66.7,66.2,29.76,South,180,2.7,2.7,98,0.12,,RA,0.12,VWS V14.01,2013-04-12 06:12:00,
2013-04-12 02:17:00,66.6,66.0,29.76,SSW,202,2.7,2.7,98,0.12,,RA,0.12,VWS V14.01,2013-04-12 06:17:00,
2013-04-12 02:22:00,66.4,65.5,29.76,SSW,202,4.9,8.1,97,0.17,, +RA,0.17,VWS V14.01,2013-04-12 06:22:00,
2013-04-12 02:28:00,65.8,65.0,29.76,WSW,248,6.7,8.1,97,0.21,, +RA,0.21,VWS V14.01,2013-04-12 06:28:00,
2013-04-12 02:33:00,64.8,63.6,29.76,WNW,292,5.8,7.6,96,0.29,, +RA,0.29,VWS V14.01,2013-04-12 06:33:00,
2013-04-12 02:38:00,64.4,63.2,29.79,WSW,248,6.3,6.3,96,0.37,, +RA,0.41,VWS V14.01,2013-04-12 06:38:00,
2013-04-12 02:43:00,63.1,62.3,29.79,WNW,292,4.9,9.6,97,0.42,, +RA,0.46,VWS V14.01,2013-04-12 06:43:00,
2013-04-12 02:48:00,62.8,61.9,29.79,WSW,248,8.1,8.1,97,0.42,, +RA,0.50,VWS V14.01,2013-04-12 06:48:00,
2013-04-12 02:53:00,62.6,61.7,29.76,WNW,292,3.6,4.0,97,0.42,, +RA,0.50,VWS V14.01,2013-04-12 06:53:00,
2013-04-12 02:58:00,62.4,61.8,29.76,WNW,292,5.8,5.8,98,0.42,, +RA,0.50,VWS V14.01,2013-04-12 06:58:00,
2013-04-12 03:03:00,62.4,61.8,29.76,WSW,248,3.6,5.8,98,0.42,,RA,0.54,VWS V14.01,2013-04-12 07:03:00,
2013-04-12 03:08:00,62.2,61.7,29.76,WNW,292,3.6,4.0,98,0.42,,RA,0.54,VWS V14.01,2013-04-12 07:08:00,
2013-04-12 03:13:00,62.2,61.7,29.76,WNW,292,3.1,4.0,98,0.42,,RA,0.54,VWS V14.01,2013-04-12 07:13:00,
2013-04-12 03:18:00,62.2,61.7,29.76,WSW,248,2.2,2.7,98,0.42,,RA,0.54,VWS V14.01,2013-04-12 07:18:00,
2013-04-12 03:23:00,62.2,61.7,29.76,WSW,248,3.6,3.6,98,0.41,,RA,0.58,VWS V14.01,2013-04-12 07:23:00,
2013-04-12 03:28:00,62.2,61.7,29.76,NNE,22,0.0,0.0,98,0.37,,RA,0.58,VWS V14.01,2013-04-12 07:28:00,
2013-04-12 03:33:00,62.1,61.5,29.76,NNE,22,0.0,0.0,98,0.29,,RA,0.58,VWS V14.01,2013-04-12 07:33:00,
2013-04-12 03:38:00,62.1,61.5,29.74,SSW,202,0.0,0.0,98,0.17,,RA,0.58,VWS V14.01,2013-04-12 07:38:00,
2013-04-12 03:43:00,61.9,61.3,29.74,SSW,202,0.0,0.0,98,0.12,,-RA,0.58,VWS V14.01,2013-04-12 07:43:00,
2013-04-12 03:48:00,61.9,61.3,29.74,SSW,202,0.0,0.0,98,0.08,,-RA,0.58,VWS V14.01,2013-04-12 07:48:00,
2013-04-12 03:53:00,61.9,61.3,29.76,SSW,202,0.0,0.0,98,0.08,,-RA,0.58,VWS V14.01,2013-04-12 07:53:00,
2013-04-12 03:58:00,61.9,61.3,29.76,SSW,202,0.0,0.0,98,0.08,,-RA,0.58,VWS V14.01,2013-04-12 07:58:00,
2013-04-12 04:03:00,61.9,61.3,29.76,SSW,202,0.0,0.0,98,0.04,,OVC100,0.58,VWS V14.01,2013-04-12 08:03:00,
2013-04-12 04:08:00,61.9,61.3,29.76,SSW,202,0.0,0.0,98,0.04,,OVC100,0.58,VWS V14.01,2013-04-12 08:08:00,
2013-04-12 04:13:00,61.7,61.1,29.76,SSW,202,0.0,0.0,98,0.04,,OVC100,0.58,VWS V14.01,2013-04-12 08:13:00,
2013-04-12 04:18:00,61.9,61.3,29.76,SSW,202,0.0,0.0,98,0.04,,OVC100,0.58,VWS V14.01,2013-04-12 08:18:00,
2013-04-12 04:23:00,61.9,61.3,29.76,SSW,202,0.0,0.0,98,0.00,,OVC090,0.58,VWS V14.01,2013-04-12 08:23:00,
2013-04-12 04:28:00,61.7,61.1,29.76,SSW,202,0.0,0.0,98,0.00,,OVC090,0.58,VWS V14.01,2013-04-12 08:28:00,
2013-04-12 04:33:00,61.7,61.1,29.76,SSW,202,0.0,0.0,98,0.00,,OVC090,0.58,VWS V14.01,2013-04-12 08:33:00,
2013-04-12 04:38:00,61.7,61.1,29.76,SSW,202,0.0,0.0,98,0.00,,OVC090,0.58,VWS V14.01,2013-04-12 08:38:00,
2013-04-12 04:43:00,61.7,61.1,29.76,SSW,202,0.0,0.0,98,0.00,,OVC080,0.58,VWS V14.01,2013-04-12 08:43:00,
2013-04-12 04:48:00,61.7,61.1,29.76,SSW,202,0.0,0.0,98,0.00,,OVC080,0.58,VWS V14.01,2013-04-12 08:48:00,
2013-04-12 04:53:00,61.7,61.1,29.76,SSW,202,0.0,0.0,98,0.00,,OVC080,0.58,VWS V14.01,2013-04-12 08:53:00,
2013-04-12 04:58:00,61.9,61.3,29.76,SSW,202,0.0,0.0,98,0.00,,OVC080,0.58,VWS V14.01,2013-04-12 08:58:00,
2013-04-12 05:03:00,61.9,61.3,29.76,SSW,202,0.0,0.0,98,0.00,,,0.58,VWS V14.01,2013-04-12 09:03:00,
2013-04-12 05:09:00,61.7,61.1,29.74,SSW,202,0.0,0.0,98,0.00,,,0.58,VWS V14.01,2013-04-12 09:09:00,
2013-04-12 05:14:00,61.7,61.1,29.74,SSW,202,0.0,0.0,98,0.00,,,0.58,VWS V14.01,2013-04-12 09:14:00,
2013-04-12 05:19:00,61.7,61.1,29.74,SSW,202,0.0,0.0,98,0.00,,,0.58,VWS V14.01,2013-04-12 09:19:00,
2013-04-12 05:24:00,61.5,61.0,29.76,SSW,202,0.0,0.0,98,0.00,,-RA,0.58,VWS V14.01,2013-04-12 09:24:00,
2013-04-12 05:29:00,61.7,61.1,29.76,SSW,202,0.0,0.0,98,0.00,,-RA,0.58,VWS V14.01,2013-04-12 09:29:00,
2013-04-12 05:34:00,61.7,61.1,29.76,SSW,202,0.0,0.0,98,0.00,,-RA,0.58,VWS V14.01,2013-04-12 09:34:00,
2013-04-12 05:39:00,61.9,61.3,29.74,SSE,158,3.1,3.1,98,0.00,,-RA,0.58,VWS V14.01,2013-04-12 09:39:00,
2013-04-12 05:44:00,62.1,61.5,29.74,SE,135,0.0,0.0,98,0.00,,-RA,0.58,VWS V14.01,2013-04-12 09:44:00,
2013-04-12 05:49:00,62.1,61.5,29.74,SSE,158,0.0,0.0,98,0.00,,-RA,0.58,VWS V14.01,2013-04-12 09:49:00,
2013-04-12 05:54:00,62.2,61.7,29.74,SSE,158,3.1,3.1,98,0.00,,-RA,0.58,VWS V14.01,2013-04-12 09:54:00,
2013-04-12 05:59:00,62.4,61.8,29.74,SSE,158,2.7,2.7,98,0.00,,-RA,0.58,VWS V14.01,2013-04-12 09:59:00,
2013-04-12 06:04:00,62.4,61.8,29.74,SSE,158,0.0,0.0,98,0.00,,OVC100,0.58,VWS V14.01,2013-04-12 10:04:00,
2013-04-12 06:09:00,62.6,62.0,29.74,SE,135,0.0,4.0,98,0.00,,OVC100,0.58,VWS V14.01,2013-04-12 10:09:00,
2013-04-12 06:14:00,62.6,62.0,29.74,South,180,2.7,2.7,98,0.00,,OVC100,0.58,VWS V14.01,2013-04-12 10:14:00,
2013-04-12 06:19:00,62.6,62.0,29.74,ESE,112,0.0,3.6,98,0.00,,OVC100,0.58,VWS V14.01,2013-04-12 10:19:00,
2013-04-12 06:24:00,62.8,62.2,29.74,SSE,158,0.0,3.1,98,0.00,,-RA,0.58,VWS V14.01,2013-04-12 10:24:00,
2013-04-12 06:29:00,63.0,62.4,29.74,SSE,158,2.7,3.1,98,0.00,,-RA,0.58,VWS V14.01,2013-04-12 10:29:00,
2013-04-12 06:34:00,63.3,62.8,29.74,ESE,112,2.7,4.5,98,0.00,,-RA,0.58,VWS V14.01,2013-04-12 10:34:00,
2013-04-12 06:39:00,63.3,62.8,29.74,WSW,248,2.7,4.9,98,0.00,,-RA,0.58,VWS V14.01,2013-04-12 10:39:00,
2013-04-12 06:44:00,63.5,62.9,29.74,SSE,158,0.0,5.4,98,0.00,,OVC028,0.58,VWS V14.01,2013-04-12 10:44:00,
2013-04-12 06:49:00,63.5,62.9,29.74,SSW,202,0.0,3.1,98,0.00,,OVC028,0.58,VWS V14.01,2013-04-12 10:49:00,
2013-04-12 06:54:00,63.7,63.1,29.74,SSE,158,0.0,0.0,98,0.00,,OVC028,0.58,VWS V14.01,2013-04-12 10:54:00,
2013-04-12 06:59:00,63.7,63.1,29.74,SW,225,2.7,3.6,98,0.00,,OVC028,0.58,VWS V14.01,2013-04-12 10:59:00,
2013-04-12 07:04:00,63.7,63.1,29.74,SSW,202,5.8,5.8,98,0.00,,OVC100,0.58,VWS V14.01,2013-04-12 11:04:00,
2013-04-12 07:09:00,63.9,63.3,29.74,SSE,158,3.6,3.6,98,0.00,,OVC100,0.58,VWS V14.01,2013-04-12 11:09:00,
2013-04-12 07:14:00,63.9,63.3,29.74,SSE,158,2.2,3.6,98,0.00,,OVC100,0.58,VWS V14.01,2013-04-12 11:14:00,
2013-04-12 07:20:00,63.9,63.0,29.74,South,180,2.2,2.7,97,0.00,,OVC100,0.58,VWS V14.01,2013-04-12 11:20:00,
2013-04-12 07:25:00,64.0,63.2,29.74,WSW,248,3.6,3.6,97,0.00,,OVC100,0.58,VWS V14.01,2013-04-12 11:25:00,
2013-04-12 07:30:00,64.0,62.9,29.74,West,270,4.9,4.9,96,0.00,,OVC100,0.58,VWS V14.01,2013-04-12 11:30:00,
2013-04-12 07:35:00,64.4,62.9,29.74,South,180,2.2,4.0,95,0.00,,OVC100,0.58,VWS V14.01,2013-04-12 11:35:00,
2013-04-12 07:40:00,64.2,62.8,29.74,SSW,202,4.0,4.9,95,0.00,,OVC100,0.58,VWS V14.01,2013-04-12 11:40:00,
2013-04-12 07:45:00,64.6,62.8,29.74,SW,225,2.2,6.3,94,0.00,,OVC075,0.58,VWS V14.01,2013-04-12 11:45:00,
2013-04-12 07:50:00,64.6,62.8,29.74,SSE,158,0.0,2.2,94,0.00,,OVC075,0.58,VWS V14.01,2013-04-12 11:50:00,
2013-04-12 07:55:00,64.6,62.5,29.74,WSW,248,3.1,3.1,93,0.00,,OVC075,0.58,VWS V14.01,2013-04-12 11:55:00,
2013-04-12 08:00:00,65.1,62.7,29.74,SSE,158,4.0,4.0,92,0.00,,OVC075,0.58,VWS V14.01,2013-04-12 12:00:00,
2013-04-12 08:05:00,65.5,62.8,29.74,SSW,202,3.1,5.4,91,0.00,,OVC085,0.58,VWS V14.01,2013-04-12 12:05:00,
2013-04-12 08:10:00,65.8,62.5,29.74,WSW,248,8.1,8.1,89,0.00,,OVC085,0.58,VWS V14.01,2013-04-12 12:10:00,
2013-04-12 08:15:00,66.2,62.5,29.74,ESE,112,3.6,4.0,88,0.00,,OVC085,0.58,VWS V14.01,2013-04-12 12:15:00,
2013-04-12 08:20:00,66.2,62.2,29.74,SSW,202,4.9,4.9,87,0.00,,OVC085,0.58,VWS V14.01,2013-04-12 12:20:00,
2013-04-12 08:25:00,66.2,61.9,29.74,WSW,248,2.7,4.0,86,0.00,,BKN085,0.58,VWS V14.01,2013-04-12 12:25:00,
2013-04-12 08:30:00,66.2,61.9,29.74,WSW,248,4.0,4.0,86,0.00,,BKN085,0.58,VWS V14.01,2013-04-12 12:30:00,
2013-04-12 08:35:00,66.2,61.6,29.76,West,270,2.7,3.1,85,0.00,,BKN085,0.58,VWS V14.01,2013-04-12 12:35:00,
2013-04-12 08:40:00,66.4,61.7,29.76,SW,225,4.9,4.9,85,0.00,,OVC075,0.58,VWS V14.01,2013-04-12 12:40:00,
2013-04-12 08:45:00,66.6,61.9,29.76,WSW,248,4.0,4.0,85,0.00,,OVC075,0.58,VWS V14.01,2013-04-12 12:45:00,
2013-04-12 08:50:00,66.9,62.3,29.76,SW,225,5.8,5.8,85,0.00,,OVC075,0.58,VWS V14.01,2013-04-12 12:50:00,
2013-04-12 08:55:00,67.5,62.5,29.76,WSW,248,3.6,4.0,84,0.00,,OVC075,0.58,VWS V14.01,2013-04-12 12:55:00,
2013-04-12 09:00:00,68.0,62.7,29.76,WSW,248,4.0,6.3,83,0.00,,BKN085,0.58,VWS V14.01,2013-04-12 13:00:00,
2013-04-12 09:05:00,68.4,62.0,29.76,WSW,248,3.6,5.8,80,0.00,,BKN085,0.58,VWS V14.01,2013-04-12 13:05:00,
2013-04-12 09:10:00,68.7,61.6,29.76,SW,225,4.0,4.0,78,0.00,,BKN085,0.58,VWS V14.01,2013-04-12 13:10:00,
2013-04-12 09:15:00,68.4,60.5,29.76,West,270,2.7,4.0,76,0.00,,BKN085,0.58,VWS V14.01,2013-04-12 13:15:00,
2013-04-12 09:20:00,68.4,60.5,29.76,WSW,248,3.6,3.6,76,0.00,,SCT085,0.58,VWS V14.01,2013-04-12 13:20:00,
2013-04-12 09:25:00,68.5,59.9,29.76,WNW,292,5.4,6.3,74,0.00,,SCT085,0.58,VWS V14.01,2013-04-12 13:25:00,
2013-04-12 09:30:00,69.4,60.8,29.76,West,270,2.7,4.9,74,0.00,,SCT085,0.58,VWS V14.01,2013-04-12 13:30:00,
2013-04-12 09:35:00,69.4,60.0,29.76,WSW,248,4.0,6.3,72,0.00,,SCT085,0.58,VWS V14.01,2013-04-12 13:35:00,
2013-04-12 09:40:00,69.3,59.5,29.76,WNW,292,4.9,4.9,71,0.00,,BKN085,0.58,VWS V14.01,2013-04-12 13:40:00,
2013-04-12 09:45:00,69.4,60.4,29.76,SW,225,3.6,5.8,73,0.00,,BKN085,0.58,VWS V14.01,2013-04-12 13:45:00,
2013-04-12 09:50:00,69.1,59.7,29.76,West,270,3.1,5.4,72,0.00,,BKN085,0.58,VWS V14.01,2013-04-12 13:50:00,
2013-04-12 09:56:00,69.1,59.3,29.76,WNW,292,2.7,3.6,71,0.00,,BKN085,0.58,VWS V14.01,2013-04-12 13:56:00,
2013-04-12 10:01:00,69.8,60.8,29.76,WNW,292,3.6,3.6,73,0.00,,SCT023,0.58,VWS V14.01,2013-04-12 14:01:00,
2013-04-12 10:06:00,69.8,60.0,29.76,WNW,292,3.1,4.9,71,0.00,,SCT023,0.58,VWS V14.01,2013-04-12 14:06:00,
2013-04-12 10:11:00,70.2,59.9,29.76,WSW,248,4.0,4.0,70,0.00,,SCT023,0.58,VWS V14.01,2013-04-12 14:11:00,
2013-04-12 10:16:00,70.5,59.9,29.76,West,270,3.1,5.8,69,0.00,,SCT023,0.58,VWS V14.01,2013-04-12 14:16:00,
2013-04-12 10:21:00,71.1,60.4,29.76,West,270,3.6,5.4,69,0.00,,CLR,0.58,VWS V14.01,2013-04-12 14:21:00,
2013-04-12 10:26:00,70.9,59.0,29.76,West,270,3.1,3.1,66,0.00,,CLR,0.58,VWS V14.01,2013-04-12 14:26:00,
2013-04-12 10:31:00,70.7,57.5,29.76,West,270,3.1,4.0,63,0.00,,CLR,0.58,VWS V14.01,2013-04-12 14:31:00,
2013-04-12 10:36:00,71.1,58.3,29.76,West,270,3.6,3.6,64,0.00,,CLR,0.58,VWS V14.01,2013-04-12 14:36:00,
2013-04-12 10:41:00,71.2,57.6,29.76,West,270,4.0,4.9,62,0.00,,CLR,0.58,VWS V14.01,2013-04-12 14:41:00,
2013-04-12 10:46:00,71.6,57.5,29.76,West,270,3.1,4.9,61,0.00,,CLR,0.58,VWS V14.01,2013-04-12 14:46:00,
2013-04-12 10:51:00,71.8,56.2,29.76,WSW,248,3.1,4.0,58,0.00,,CLR,0.58,VWS V14.01,2013-04-12 14:51:00,
2013-04-12 10:56:00,71.8,55.3,29.76,West,270,3.6,3.6,56,0.00,,CLR,0.58,VWS V14.01,2013-04-12 14:56:00,
2013-04-12 11:02:00,72.0,56.4,29.76,West,270,4.0,4.0,58,0.00,,CLR,0.58,VWS V14.01,2013-04-12 15:02:00,
2013-04-12 11:07:00,72.7,57.1,29.76,West,270,2.2,3.1,58,0.00,,CLR,0.58,VWS V14.01,2013-04-12 15:07:00,
2013-04-12 11:12:00,72.5,55.9,29.76,West,270,3.1,3.6,56,0.00,,CLR,0.58,VWS V14.01,2013-04-12 15:12:00,
2013-04-12 11:17:00,73.4,55.2,29.76,WSW,248,5.4,5.4,53,0.00,,CLR,0.58,VWS V14.01,2013-04-12 15:17:00,
2013-04-12 11:22:00,74.5,55.2,29.76,WSW,248,3.6,4.0,51,0.00,,CLR,0.58,VWS V14.01,2013-04-12 15:22:00,
2013-04-12 11:27:00,75.0,54.6,29.76,West,270,2.2,4.0,49,0.00,,CLR,0.58,VWS V14.01,2013-04-12 15:27:00,
2013-04-12 11:32:00,75.7,52.9,29.76,WNW,292,3.1,3.1,45,0.00,,CLR,0.58,VWS V14.01,2013-04-12 15:32:00,
2013-04-12 11:37:00,76.8,53.9,29.76,WSW,248,3.1,3.1,45,0.00,,CLR,0.58,VWS V14.01,2013-04-12 15:37:00,
2013-04-12 11:42:00,76.6,51.8,29.76,SW,225,3.1,5.4,42,0.00,,SCT065,0.58,VWS V14.01,2013-04-12 15:42:00,
2013-04-12 11:47:00,78.1,52.5,29.76,SW,225,4.9,4.9,41,0.00,,SCT065,0.58,VWS V14.01,2013-04-12 15:47:00,
2013-04-12 11:52:00,76.1,49.4,29.76,WSW,248,5.4,5.4,39,0.00,,SCT065,0.58,VWS V14.01,2013-04-12 15:52:00,
2013-04-12 12:04:00,77.5,48.5,29.76,WSW,248,3.1,3.1,36,0.00,,,0.58,VWS V14.01,2013-04-12 16:04:00,
2013-04-12 12:09:00,78.1,48.2,29.76,WSW,248,4.0,4.9,35,0.00,,,0.58,VWS V14.01,2013-04-12 16:09:00,
2013-04-12 12:14:00,78.4,47.8,29.76,WSW,248,3.6,3.6,34,0.00,,,0.58,VWS V14.01,2013-04-12 16:14:00,
2013-04-12 12:19:00,77.2,47.4,29.76,WNW,292,4.9,4.9,35,0.00,,,0.58,VWS V14.01,2013-04-12 16:19:00,
2013-04-12 12:24:00,79.5,46.3,29.76,WNW,292,2.7,2.7,31,0.00,,SCT060,0.58,VWS V14.01,2013-04-12 16:24:00,
2013-04-12 12:29:00,79.0,46.6,29.76,WNW,292,2.7,5.4,32,0.00,,SCT060,0.58,VWS V14.01,2013-04-12 16:29:00,
2013-04-12 12:34:00,78.3,46.0,29.76,West,270,8.3,8.3,32,0.00,,SCT060,0.58,VWS V14.01,2013-04-12 16:34:00,
2013-04-12 12:40:00,76.8,45.6,29.76,West,270,5.4,6.3,33,0.00,,SCT060,0.58,VWS V14.01,2013-04-12 16:40:00,
2013-04-12 12:45:00,77.4,46.0,29.76,WSW,248,3.6,3.6,33,0.00,,CLR,0.58,VWS V14.01,2013-04-12 16:45:00,
2013-04-12 12:50:00,76.3,45.1,29.76,WSW,248,5.8,5.8,33,0.00,,CLR,0.58,VWS V14.01,2013-04-12 16:50:00,
2013-04-12 12:55:00,76.5,45.2,29.76,WNW,292,2.7,2.7,33,0.00,,CLR,0.58,VWS V14.01,2013-04-12 16:55:00,
2013-04-12 13:00:00,76.8,44.8,29.76,WNW,292,2.7,2.7,32,0.00,,CLR,0.58,VWS V14.01,2013-04-12 17:00:00,
2013-04-12 13:05:00,76.6,44.6,29.74,WSW,248,4.9,4.9,32,0.00,,CLR,0.58,VWS V14.01,2013-04-12 17:05:00,
2013-04-12 13:10:00,78.1,45.0,29.74,WNW,292,3.6,3.6,31,0.00,,CLR,0.58,VWS V14.01,2013-04-12 17:10:00,
2013-04-12 13:15:00,78.6,43.7,29.74,WSW,248,6.3,8.3,29,0.00,,CLR,0.58,VWS V14.01,2013-04-12 17:15:00,
2013-04-12 13:20:00,77.9,44.0,29.74,West,270,4.0,4.0,30,0.00,,SCT080,0.58,VWS V14.01,2013-04-12 17:20:00,
2013-04-12 13:25:00,77.4,43.5,29.74,SW,225,5.8,5.8,30,0.00,,SCT080,0.58,VWS V14.01,2013-04-12 17:25:00,
2013-04-12 13:30:00,78.4,42.7,29.74,WSW,248,6.7,6.7,28,0.00,,SCT080,0.58,VWS V14.01,2013-04-12 17:30:00,
2013-04-12 13:35:00,79.5,41.7,29.74,SW,225,4.9,5.4,26,0.00,,SCT080,0.58,VWS V14.01,2013-04-12 17:35:00,
2013-04-12 13:40:00,79.9,44.8,29.74,WSW,248,8.1,8.1,29,0.00,,CLR,0.58,VWS V14.01,2013-04-12 17:40:00,
2013-04-12 13:45:00,79.2,42.3,29.74,WSW,248,4.0,5.4,27,0.00,,CLR,0.58,VWS V14.01,2013-04-12 17:45:00,
2013-04-12 13:50:00,77.5,41.0,29.74,WSW,248,3.1,5.8,27,0.00,,CLR,0.58,VWS V14.01,2013-04-12 17:50:00,
2013-04-12 13:55:00,78.8,41.0,29.74,WSW,248,3.6,4.0,26,0.00,,CLR,0.58,VWS V14.01,2013-04-12 17:55:00,
2013-04-12 14:00:00,80.2,40.2,29.74,WSW,248,3.6,3.6,24,0.00,,CLR,0.58,VWS V14.01,2013-04-12 18:00:00,
2013-04-12 14:06:00,80.6,40.5,29.74,South,180,3.6,5.8,24,0.00,,CLR,0.58,VWS V14.01,2013-04-12 18:06:00,
2013-04-12 14:12:00,82.4,38.6,29.74,WNW,292,3.6,4.0,21,0.00,,CLR,0.58,VWS V14.01,2013-04-12 18:12:00,
2013-04-12 14:17:00,82.0,39.5,29.74,SW,225,3.1,3.1,22,0.00,,CLR,0.58,VWS V14.01,2013-04-12 18:17:00,
2013-04-12 14:22:00,82.6,41.1,29.74,South,180,3.1,3.1,23,0.00,,CLR,0.58,VWS V14.01,2013-04-12 18:22:00,
2013-04-12 14:28:00,81.7,41.4,29.74,WSW,248,4.9,6.3,24,0.00,,CLR,0.58,VWS V14.01,2013-04-12 18:28:00,
2013-04-12 15:26:00,81.3,35.2,29.71,SW,225,4.9,5.8,19,0.00,,CLR,0.58,VWS V14.01,2013-04-12 19:26:00,
2013-04-12 15:27:00,81.3,35.2,29.71,SW,225,4.9,5.8,19,0.00,,CLR,0.58,VWS V14.01,2013-04-12 19:27:00,
2013-04-12 15:32:00,81.9,36.9,29.71,WSW,248,5.4,5.4,20,0.00,,CLR,0.58,VWS V14.01,2013-04-12 19:32:00,
2013-04-12 15:37:00,81.9,32.8,29.74,WSW,248,8.1,8.1,17,0.00,,CLR,0.58,VWS V14.01,2013-04-12 19:37:00,
2013-04-12 15:42:00,82.2,33.1,29.74,SSW,202,3.6,4.0,17,0.00,,CLR,0.58,VWS V14.01,2013-04-12 19:42:00,
2013-04-12 15:47:00,82.6,36.2,29.74,WNW,292,3.1,6.7,19,0.00,,CLR,0.58,VWS V14.01,2013-04-12 19:47:00,
2013-04-12 15:52:00,82.6,31.9,29.71,WSW,248,8.3,8.3,16,0.00,,CLR,0.58,VWS V14.01,2013-04-12 19:52:00,
2013-04-12 15:57:00,82.4,36.0,29.71,WNW,292,3.6,6.3,19,0.00,,CLR,0.58,VWS V14.01,2013-04-12 19:57:00,
2013-04-12 16:02:00,81.1,32.2,29.71,WNW,292,5.4,8.1,17,0.00,,CLR,0.58,VWS V14.01,2013-04-12 20:02:00,
2013-04-12 16:07:00,82.2,33.1,29.74,WNW,292,4.0,5.4,17,0.00,,CLR,0.58,VWS V14.01,2013-04-12 20:07:00,
2013-04-12 16:12:00,82.0,35.8,29.74,WSW,248,3.6,4.9,19,0.00,,CLR,0.58,VWS V14.01,2013-04-12 20:12:00,
2013-04-12 16:17:00,81.3,36.5,29.74,WNW,292,5.4,5.4,20,0.00,,CLR,0.58,VWS V14.01,2013-04-12 20:17:00,
2013-04-12 16:22:00,81.9,36.9,29.74,WNW,292,4.0,6.3,20,0.00,,CLR,0.58,VWS V14.01,2013-04-12 20:22:00,
2013-04-12 16:28:00,82.4,36.0,29.74,NNW,338,3.6,4.0,19,0.00,,CLR,0.58,VWS V14.01,2013-04-12 20:28:00,
2013-04-12 16:33:00,82.6,36.2,29.74,WNW,292,4.9,4.9,19,0.00,,CLR,0.58,VWS V14.01,2013-04-12 20:33:00,
2013-04-12 16:38:00,81.5,36.6,29.74,WSW,248,6.7,6.7,20,0.00,,CLR,0.58,VWS V14.01,2013-04-12 20:38:00,
2013-04-12 16:43:00,81.1,36.3,29.74,West,270,3.6,3.6,20,0.00,,CLR,0.58,VWS V14.01,2013-04-12 20:43:00,
2013-04-12 16:48:00,81.3,36.5,29.74,NW,315,2.7,5.8,20,0.00,,CLR,0.58,VWS V14.01,2013-04-12 20:48:00,
2013-04-12 16:53:00,80.8,34.7,29.74,WNW,292,8.1,8.1,19,0.00,,CLR,0.58,VWS V14.01,2013-04-12 20:53:00,
2013-04-12 16:58:00,80.2,35.6,29.74,WNW,292,3.1,4.9,20,0.00,,CLR,0.58,VWS V14.01,2013-04-12 20:58:00,
2013-04-12 17:03:00,80.2,35.6,29.74,WNW,292,4.0,4.0,20,0.00,,CLR,0.58,VWS V14.01,2013-04-12 21:03:00,
2013-04-12 17:08:00,79.5,35.0,29.74,West,270,4.9,7.6,20,0.00,,CLR,0.58,VWS V14.01,2013-04-12 21:08:00,
2013-04-12 17:13:00,79.3,34.8,29.74,West,270,6.7,6.7,20,0.00,,CLR,0.58,VWS V14.01,2013-04-12 21:13:00,
2013-04-12 17:18:00,79.0,30.5,29.74,WNW,292,4.0,4.0,17,0.00,,CLR,0.58,VWS V14.01,2013-04-12 21:18:00,
2013-04-12 17:23:00,79.3,34.8,29.74,WNW,292,4.0,4.0,20,0.00,,CLR,0.58,VWS V14.01,2013-04-12 21:23:00,
2013-04-12 17:28:00,79.2,34.7,29.74,NNW,338,4.0,6.3,20,0.00,,CLR,0.58,VWS V14.01,2013-04-12 21:28:00,
2013-04-12 17:33:00,78.8,34.4,29.74,NW,315,3.6,3.6,20,0.00,,CLR,0.58,VWS V14.01,2013-04-12 21:33:00,
2013-04-12 17:38:00,77.4,30.6,29.76,West,270,6.3,6.3,18,0.00,,CLR,0.58,VWS V14.01,2013-04-12 21:38:00,
2013-04-12 17:43:00,77.5,30.7,29.76,WNW,292,4.9,4.9,18,0.00,,CLR,0.58,VWS V14.01,2013-04-12 21:43:00,
2013-04-12 17:48:00,76.6,30.0,29.76,WNW,292,4.9,4.9,18,0.00,,CLR,0.58,VWS V14.01,2013-04-12 21:48:00,
2013-04-12 17:53:00,76.3,29.7,29.76,WNW,292,5.4,5.4,18,0.00,,CLR,0.58,VWS V14.01,2013-04-12 21:53:00,
2013-04-12 17:58:00,75.7,29.3,29.76,NW,315,4.0,4.0,18,0.00,,CLR,0.58,VWS V14.01,2013-04-12 21:58:00,
2013-04-12 18:03:00,75.4,29.0,29.76,WNW,292,2.7,3.6,18,0.00,,CLR,0.58,VWS V14.01,2013-04-12 22:03:00,
2013-04-12 18:08:00,75.2,28.8,29.76,WNW,292,6.3,8.3,18,0.00,,CLR,0.58,VWS V14.01,2013-04-12 22:08:00,
2013-04-12 18:13:00,75.0,28.7,29.76,NW,315,3.6,4.0,18,0.00,,CLR,0.58,VWS V14.01,2013-04-12 22:13:00,
2013-04-12 18:18:00,74.8,28.5,29.76,WNW,292,5.8,8.3,18,0.00,,CLR,0.58,VWS V14.01,2013-04-12 22:18:00,
2013-04-12 18:23:00,74.1,27.9,29.76,WNW,292,4.0,7.6,18,0.00,,CLR,0.58,VWS V14.01,2013-04-12 22:23:00,
2013-04-12 18:28:00,74.3,28.1,29.76,WNW,292,4.0,4.9,18,0.00,,CLR,0.58,VWS V14.01,2013-04-12 22:28:00,
2013-04-12 18:33:00,74.5,28.2,29.76,WNW,292,0.0,4.0,18,0.00,,CLR,0.58,VWS V14.01,2013-04-12 22:33:00,
2013-04-12 18:38:00,74.7,28.4,29.76,WNW,292,2.7,4.0,18,0.00,,CLR,0.58,VWS V14.01,2013-04-12 22:38:00,
2013-04-12 18:44:00,74.7,25.5,29.76,WNW,292,3.6,4.9,16,0.00,,CLR,0.58,VWS V14.01,2013-04-12 22:44:00,
2013-04-12 18:49:00,74.3,25.2,29.76,NNE,22,4.0,4.0,16,0.00,,CLR,0.58,VWS V14.01,2013-04-12 22:49:00,
2013-04-12 18:54:00,73.4,24.5,29.79,NW,315,3.1,6.3,16,0.00,,CLR,0.58,VWS V14.01,2013-04-12 22:54:00,
2013-04-12 18:59:00,72.7,23.9,29.79,WNW,292,2.7,5.8,16,0.00,,CLR,0.58,VWS V14.01,2013-04-12 22:59:00,
2013-04-12 19:04:00,72.0,23.4,29.79,WNW,292,4.5,5.4,16,0.00,,CLR,0.58,VWS V14.01,2013-04-12 23:04:00,
2013-04-12 19:09:00,71.6,23.1,29.79,West,270,2.7,3.1,16,0.00,,CLR,0.58,VWS V14.01,2013-04-12 23:09:00,
2013-04-12 19:14:00,71.2,24.2,29.79,West,270,4.0,4.0,17,0.00,,CLR,0.58,VWS V14.01,2013-04-12 23:14:00,
2013-04-12 19:19:00,70.9,23.9,29.79,WSW,248,2.7,2.7,17,0.00,,CLR,0.58,VWS V14.01,2013-04-12 23:19:00,
2013-04-12 19:24:00,70.2,23.4,29.79,WNW,292,2.7,2.7,17,0.00,,CLR,0.58,VWS V14.01,2013-04-12 23:24:00,
2013-04-12 19:29:00,69.6,22.9,29.79,NW,315,3.1,3.1,17,0.00,,CLR,0.58,VWS V14.01,2013-04-12 23:29:00,
2013-04-12 19:34:00,69.1,22.5,29.79,WNW,292,4.0,5.4,17,0.00,,CLR,0.58,VWS V14.01,2013-04-12 23:34:00,
2013-04-12 19:39:00,68.7,22.2,29.79,WNW,292,4.0,4.0,17,0.00,,CLR,0.58,VWS V14.01,2013-04-12 23:39:00,
2013-04-12 19:44:00,68.0,21.6,29.79,WNW,292,3.1,3.1,17,0.00,,CLR,0.58,VWS V14.01,2013-04-12 23:44:00,
2013-04-12 19:49:00,67.6,21.3,29.79,WNW,292,2.7,2.7,17,0.00,,CLR,0.58,VWS V14.01,2013-04-12 23:49:00,
2013-04-12 19:54:00,67.1,20.9,29.79,West,270,3.6,4.0,17,0.00,,CLR,0.58,VWS V14.01,2013-04-12 23:54:00,
2013-04-12 19:59:00,66.7,20.6,29.79,West,270,2.2,2.2,17,0.00,,CLR,0.58,VWS V14.01,2013-04-12 23:59:00,
2013-04-12 20:04:00,66.4,24.1,29.82,WNW,292,3.6,3.6,20,0.00,,CLR,0.58,VWS V14.01,2013-04-13 00:04:00,
2013-04-12 20:09:00,65.8,23.7,29.82,WNW,292,0.0,0.0,20,0.00,,CLR,0.58,VWS V14.01,2013-04-13 00:09:00,
2013-04-12 20:14:00,64.8,22.8,29.82,WNW,292,0.0,0.0,20,0.00,,CLR,0.58,VWS V14.01,2013-04-13 00:14:00,
2013-04-12 20:19:00,64.6,26.0,29.82,WNW,292,0.0,2.2,23,0.00,,CLR,0.58,VWS V14.01,2013-04-13 00:19:00,
2013-04-12 20:24:00,63.9,25.4,29.82,WNW,292,0.0,2.7,23,0.00,,CLR,0.58,VWS V14.01,2013-04-13 00:24:00,
2013-04-12 20:29:00,63.5,25.1,29.82,WNW,292,0.0,0.0,23,0.00,,CLR,0.58,VWS V14.01,2013-04-13 00:29:00,
2013-04-12 20:34:00,63.0,24.6,29.82,WNW,292,0.0,0.0,23,0.00,,CLR,0.58,VWS V14.01,2013-04-13 00:34:00,
2013-04-12 20:39:00,61.9,24.7,29.82,WNW,292,0.0,0.0,24,0.00,,CLR,0.58,VWS V14.01,2013-04-13 00:39:00,
2013-04-12 20:44:00,61.5,25.4,29.82,WNW,292,0.0,0.0,25,0.00,,CLR,0.58,VWS V14.01,2013-04-13 00:44:00,
2013-04-12 20:49:00,61.2,25.1,29.82,WNW,292,3.1,3.1,25,0.00,,CLR,0.58,VWS V14.01,2013-04-13 00:49:00,
2013-04-12 20:54:00,61.3,25.2,29.85,WNW,292,3.1,3.1,25,0.00,,CLR,0.58,VWS V14.01,2013-04-13 00:54:00,
2013-04-12 20:59:00,61.5,25.4,29.85,NNE,22,3.6,3.6,25,0.00,,CLR,0.58,VWS V14.01,2013-04-13 00:59:00,
2013-04-12 21:05:00,62.2,26.0,29.85,NNE,22,3.1,3.6,25,0.00,,CLR,0.58,VWS V14.01,2013-04-13 01:05:00,
2013-04-12 21:10:00,62.1,25.9,29.85,North,0,2.7,4.0,25,0.00,,CLR,0.58,VWS V14.01,2013-04-13 01:10:00,
2013-04-12 21:15:00,61.7,25.5,29.85,WNW,292,4.0,5.4,25,0.00,,CLR,0.58,VWS V14.01,2013-04-13 01:15:00,
2013-04-12 21:20:00,61.7,25.5,29.85,WNW,292,3.1,4.9,25,0.00,,CLR,0.58,VWS V14.01,2013-04-13 01:20:00,
2013-04-12 21:25:00,61.5,25.4,29.85,NNW,338,0.0,0.0,25,0.00,,CLR,0.58,VWS V14.01,2013-04-13 01:25:00,
2013-04-12 21:30:00,61.2,25.1,29.85,WNW,292,3.1,4.0,25,0.00,,CLR,0.58,VWS V14.01,2013-04-13 01:30:00,
2013-04-12 21:35:00,60.8,25.7,29.88,WNW,292,0.0,4.0,26,0.00,,CLR,0.58,VWS V14.01,2013-04-13 01:35:00,
2013-04-12 21:40:00,60.4,25.4,29.88,WNW,292,4.0,4.0,26,0.00,,CLR,0.58,VWS V14.01,2013-04-13 01:40:00,
2013-04-12 21:45:00,60.1,26.0,29.88,WSW,248,0.0,0.0,27,0.00,,CLR,0.58,VWS V14.01,2013-04-13 01:45:00,
2013-04-12 21:50:00,59.7,26.6,29.88,NNW,338,3.6,3.6,28,0.00,,CLR,0.58,VWS V14.01,2013-04-13 01:50:00,
2013-04-12 21:55:00,59.7,26.6,29.88,North,0,3.1,3.6,28,0.00,,CLR,0.58,VWS V14.01,2013-04-13 01:55:00,
2013-04-12 22:00:00,59.9,26.7,29.88,North,0,3.6,5.8,28,0.00,,CLR,0.58,VWS V14.01,2013-04-13 02:00:00,
2013-04-12 22:05:00,59.9,27.6,29.88,NNW,338,2.7,4.0,29,0.00,,CLR,0.58,VWS V14.01,2013-04-13 02:05:00,
2013-04-12 22:10:00,59.7,27.4,29.88,NNW,338,3.1,4.0,29,0.00,,CLR,0.58,VWS V14.01,2013-04-13 02:10:00,
2013-04-12 22:15:00,59.5,28.1,29.88,NNW,338,2.7,3.6,30,0.00,,CLR,0.58,VWS V14.01,2013-04-13 02:15:00,
2013-04-12 22:20:00,59.4,28.7,29.88,NNW,338,3.1,4.0,31,0.00,,CLR,0.58,VWS V14.01,2013-04-13 02:20:00,
2013-04-12 22:25:00,59.0,29.2,29.88,North,0,0.0,3.6,32,0.00,,CLR,0.58,VWS V14.01,2013-04-13 02:25:00,
2013-04-12 22:30:00,58.8,29.8,29.88,NW,315,3.6,4.9,33,0.00,,CLR,0.58,VWS V14.01,2013-04-13 02:30:00,
2013-04-12 22:35:00,58.8,29.8,29.88,North,0,0.0,2.2,33,0.00,,CLR,0.58,VWS V14.01,2013-04-13 02:35:00,
2013-04-12 22:40:00,58.6,30.4,29.88,NNW,338,5.4,5.4,34,0.00,,CLR,0.58,VWS V14.01,2013-04-13 02:40:00,
2013-04-12 22:45:00,58.6,30.4,29.88,North,0,3.1,3.1,34,0.00,,CLR,0.58,VWS V14.01,2013-04-13 02:45:00,
2013-04-12 22:50:00,58.6,30.4,29.88,NNW,338,3.6,4.0,34,0.00,,CLR,0.58,VWS V14.01,2013-04-13 02:50:00,
2013-04-12 22:56:00,58.5,30.9,29.88,WNW,292,3.6,5.8,35,0.00,,CLR,0.58,VWS V14.01,2013-04-13 02:56:00,
2013-04-12 23:01:00,58.1,30.6,29.88,WNW,292,2.7,4.9,35,0.00,,CLR,0.58,VWS V14.01,2013-04-13 03:01:00,
2013-04-12 23:06:00,57.7,30.3,29.91,WNW,292,0.0,4.0,35,0.00,,CLR,0.58,VWS V14.01,2013-04-13 03:06:00,
2013-04-12 23:11:00,57.7,30.3,29.91,SSW,202,2.7,2.7,35,0.00,,CLR,0.58,VWS V14.01,2013-04-13 03:11:00,
2013-04-12 23:16:00,57.6,30.1,29.91,SSW,202,2.2,2.2,35,0.00,,CLR,0.58,VWS V14.01,2013-04-13 03:16:00,
2013-04-12 23:21:00,56.8,30.2,29.88,WNW,292,3.1,3.1,36,0.00,,CLR,0.58,VWS V14.01,2013-04-13 03:21:00,
2013-04-12 23:26:00,56.5,29.9,29.88,WNW,292,2.7,2.7,36,0.00,,CLR,0.58,VWS V14.01,2013-04-13 03:26:00,
2013-04-12 23:31:00,56.5,29.9,29.88,WNW,292,0.0,0.0,36,0.00,,CLR,0.58,VWS V14.01,2013-04-13 03:31:00,
2013-04-12 23:37:00,56.8,30.2,29.88,WNW,292,3.6,3.6,36,0.00,,CLR,0.58,VWS V14.01,2013-04-13 03:37:00,
2013-04-12 23:42:00,56.8,30.2,29.88,WNW,292,2.7,2.7,36,0.00,,CLR,0.58,VWS V14.01,2013-04-13 03:42:00,
2013-04-12 23:47:00,56.3,29.7,29.88,WNW,292,0.0,2.2,36,0.00,,CLR,0.58,VWS V14.01,2013-04-13 03:47:00,
2013-04-12 23:52:00,56.1,30.2,29.88,WSW,248,0.0,0.0,37,0.00,,CLR,0.58,VWS V14.01,2013-04-13 03:52:00,
2013-04-12 23:57:00,55.6,29.7,29.88,WSW,248,0.0,0.0,37,0.00,,CLR,0.58,VWS V14.01,2013-04-13 03:57:00,